Weather History for KTMB - November, 2013

Change the Weather History Date:

Saturday, November 2, 2013

  Actual Average (KMIA) Record (KMIA)
Temperature  
Mean Temperature 78 °F 77 °F  
Max Temperature 89 °F 84 °F 89 °F (2013)
Min Temperature 66 °F 70 °F 54 °F (1993)
Degree Days  
Heating Degree Days 0 0  
Month to date heating degree days 0  
Since 1 July heating degree days 0  
Cooling Degree Days 12 12  
Month to date cooling degree days 24  
Year to date cooling degree days 4096  
Growing Degree Days 28 (Base 50)    
Moisture  
Dew Point 69 °F    
Average Humidity 88    
Maximum Humidity 100    
Minimum Humidity 43    
Precipitation  
Precipitation 0.00 in 0.14 in 2.02 in (1925)
Month to date precipitation 0.28  
Year to date precipitation 56.87  
Snow  
Snow 0.00 in - - ()
Month to date snowfall  
Since 1 July snowfall  
Since 1 September snowfall  
Snow Depth -    
Sea Level Pressure  
Sea Level Pressure 29.90 in    
Wind  
Wind Speed 2 mph (West)    
Max Wind Speed 13 mph    
Max Gust Speed 20 mph    
Visibility 6 miles    
Events Fog    
T = Trace of Precipitation, MM = Missing Value Source: NWS Daily Summary

Daily Weather History Graph

Daily Weather History Graph

Search for Another Location

Airport or City:

Trip Planner

Search our weather history database for the weather conditions in past years. The results will help you decide how hot, cold, wet, or windy it might be!

Date:

Astronomy

Nov. 02, 2013 Rise Set
Actual Time 7:30 AM EDT 6:39 PM EDT
Civil Twilight 7:06 AM EDT 7:03 PM EDT
Nautical Twilight 6:39 AM EDT 7:30 PM EDT
Astronomical Twilight 6:12 AM EDT 7:57 PM EDT
Moon 6:30 AM EDT (11/2) 6:07 PM EDT (11/2)
Length of Visible Light 11h 56m
Length of Day
11h 08m
Waning Crescent, 1% of the Moon is Illuminated
Nov 2
Waning Crescent
Nov 3
New
Nov 10
First Quarter
Nov 17
Full
Nov 25
Last Quarter

Hourly Weather History & Observations

Time (EDT) Temp. Heat Index Dew Point Humidity Pressure Visibility Wind Dir Wind Speed Gust Speed Precip Events Conditions
12:53 AM 71.1 °F - 70.0 °F 96% 29.94 in 10.0 mi Calm Calm - N/A   Clear
1:53 AM 70.0 °F - 69.1 °F 97% 29.93 in 10.0 mi Calm Calm - N/A   Clear
2:53 AM 71.1 °F - 71.1 °F 100% 29.91 in 1.8 mi Calm Calm - N/A   Clear
2:59 AM 71.6 °F - 71.6 °F 100% 29.91 in 3.0 mi Calm Calm - N/A   Clear
3:07 AM 69.8 °F - 69.8 °F 100% 29.91 in 1.8 mi Calm Calm - N/A   Clear
3:21 AM 69.8 °F - 69.8 °F 100% 29.91 in 0.5 mi Calm Calm - N/A Fog Fog
3:36 AM 69.8 °F - 69.8 °F 100% 29.91 in 1.2 mi Calm Calm - N/A   Partly Cloudy
3:53 AM 69.1 °F - 69.1 °F 100% 29.91 in 0.8 mi Calm Calm - N/A   Mostly Cloudy
4:07 AM 69.8 °F - 69.8 °F 100% 29.90 in 0.2 mi Calm Calm - N/A Fog Fog
4:33 AM 69.8 °F - 69.8 °F 100% 29.90 in 0.5 mi Calm Calm - N/A Fog Fog
4:48 AM 68.0 °F - 68.0 °F 100% 29.90 in 0.5 mi Calm Calm - N/A Fog Fog
4:53 AM 69.1 °F - 68.0 °F 96% 29.90 in 0.8 mi Calm Calm - N/A   Clear
5:04 AM 69.8 °F - 69.8 °F 100% 29.89 in 2.0 mi Calm Calm - N/A   Clear
5:16 AM 69.8 °F - 69.8 °F 100% 29.89 in 1.0 mi Calm Calm - N/A   Clear
5:40 AM 66.2 °F - 66.2 °F 100% 29.89 in 3.0 mi Calm Calm - N/A   Clear
5:46 AM 66.2 °F - 66.2 °F 100% 29.89 in 2.5 mi Calm Calm - N/A   Partly Cloudy
5:49 AM 66.2 °F - 66.2 °F 100% 29.89 in 1.0 mi Calm Calm - N/A   Mist
5:53 AM 66.0 °F - 66.0 °F 100% 29.89 in 1.2 mi Calm Calm - N/A   Scattered Clouds
6:01 AM 66.2 °F - 66.2 °F 100% 29.89 in 1.5 mi Calm Calm - N/A   Mostly Cloudy
6:03 AM 66.2 °F - 66.2 °F 100% 29.89 in 0.8 mi Calm Calm - N/A   Mist
6:35 AM 66.2 °F - 66.2 °F 100% 29.89 in 0.2 mi Calm Calm - N/A Fog Fog
6:53 AM 66.9 °F - 66.9 °F 100% 29.89 in 0.2 mi Calm Calm - N/A Fog Fog
7:01 AM 66.2 °F - 66.2 °F 100% 29.90 in 1.2 mi Calm Calm - N/A   Overcast
7:08 AM 68.0 °F - 68.0 °F 100% 29.90 in 10.0 mi Calm Calm - N/A   Scattered Clouds
7:53 AM 69.1 °F - 69.1 °F 100% 29.91 in 10.0 mi Calm Calm - N/A   Scattered Clouds
8:53 AM 73.9 °F - 73.0 °F 97% 29.92 in 10.0 mi Calm Calm - N/A   Scattered Clouds
9:53 AM 79.0 °F - 73.0 °F 82% 29.94 in 10.0 mi Variable 3.5 mph - N/A   Scattered Clouds
10:53 AM 82.0 °F 86.7 °F 72.0 °F 71% 29.94 in 10.0 mi West 8.1 mph - N/A   Partly Cloudy
11:53 AM 84.9 °F 88.8 °F 69.1 °F 59% 29.93 in 10.0 mi SW 11.5 mph 19.6 mph N/A   Partly Cloudy
12:53 PM 86.0 °F 88.2 °F 66.0 °F 51% 29.91 in 10.0 mi West 12.7 mph - N/A   Clear
1:53 PM 87.1 °F 89.2 °F 66.0 °F 49% 29.88 in 10.0 mi WSW 9.2 mph - N/A   Clear
2:53 PM 88.0 °F 89.6 °F 64.9 °F 46% 29.85 in 10.0 mi WSW 5.8 mph - N/A   Partly Cloudy
3:53 PM 89.1 °F 90.3 °F 64.0 °F 43% 29.84 in 10.0 mi NW 5.8 mph - N/A   Clear
4:53 PM 87.1 °F 88.3 °F 64.0 °F 46% 29.84 in 10.0 mi West 12.7 mph - N/A   Clear
5:53 PM 82.9 °F 84.6 °F 64.9 °F 54% 29.85 in 10.0 mi West 9.2 mph - N/A   Clear
6:53 PM 79.0 °F - 70.0 °F 74% 29.87 in 10.0 mi West 8.1 mph - N/A   Partly Cloudy
7:53 PM 73.9 °F - 70.0 °F 87% 29.90 in 10.0 mi West 5.8 mph - N/A   Clear
8:53 PM 75.0 °F - 71.1 °F 87% 29.91 in 10.0 mi West 4.6 mph - N/A   Clear
9:53 PM 75.9 °F - 72.0 °F 87% 29.92 in 10.0 mi Calm Calm - N/A   Clear
10:53 PM 71.1 °F - 70.0 °F 96% 29.92 in 10.0 mi Calm Calm - N/A   Clear
11:35 PM 75.2 °F - 73.4 °F 94% 29.92 in 10.0 mi NNW 10.4 mph - N/A   Mostly Cloudy
11:46 PM 75.2 °F - 71.6 °F 89% 29.92 in 10.0 mi NNW 11.5 mph - N/A   Scattered Clouds
11:53 PM 75.0 °F - 70.0 °F 84% 29.92 in 10.0 mi North 8.1 mph - N/A   Partly Cloudy